This demonstration page uses our WeatherBlox Daily Observations layout. Learn more.

Left ArrowRight Arrow

44.31136, -96.79839

Hourly Observations for May 2, 2022

Temp ( °F °C ) Dew Point ( °F °C ) Humidity (%) Winds ( mph kmh ) Pressure ( in mb ) Visibility ( mi km ) Precip ( " mm )
12:56 am 00:56 Cloudy 41 5 33 0.6 73 73 NNW 12 19 30.14 1021 10 16 0.00 0.00
1:56 am 01:56 Cloudy 40 4.4 34 1.1 79 79 NNW 7 11 30.14 1021 10 16 0.00 0.00
2:56 am 02:56 Cloudy 39 3.9 35 1.7 86 86 WSW 8 13 30.17 1022 10 16 0.00 0.00
3:56 am 03:56 Cloudy 40 4.4 34 1.1 79 79 N 9 15 30.15 1021 10 16 0.00 0.00
4:56 am 04:56 Cloudy 39 3.9 33 0.6 79 79 NNW 8 13 30.16 1021 10 16 0.00 0.00
5:56 am 05:56 Cloudy 38 3.3 33 0.6 83 83 N 8 13 30.15 1021 10 16 0.00 0.00
6:56 am 06:56 Cloudy 37 2.8 33 0.6 86 86 N 6 9 30.15 1021 10 16 0.00 0.00
7:56 am 07:56 Cloudy 39 3.9 34 1.1 82 82 N 12 19 30.14 1021 10 16 0.00 0.00
8:35 am 08:35 Cloudy 37 3 34 1 87 87 N 13 20 30.15 1021 10 16 0.00 0.00
8:56 am 08:56 Cloudy 38 3.3 33 0.6 83 83 N 10 17 30.17 1022 10 16 0.00 0.00
9:56 am 09:56 Cloudy 38 3.3 33 0.6 83 83 N 7 11 30.20 1023 10 16 0.00 0.00
10:56 am 10:56 Cloudy 39 3.9 34 1.1 82 82 NNE 7 11 30.19 1023 10 16 0.00 0.00
11:56 am 11:56 Cloudy 38 3.3 34 1.1 86 86 NNE 7 11 30.21 1023 10 16 0.00 0.00
12:56 pm 12:56 Cloudy 38 3.3 35 1.7 89 89 NNE 8 13 30.18 1022 10 16 0.00 0.00
1:42 pm 13:42 Cloudy 39 4 34 1 81 81 VRB 6 9 30.14 1021 10 16 0.00 0.00
1:56 pm 13:56 Cloudy 39 3.9 34 1.1 82 82 NNE 7 11 30.16 1022 10 16 0.00 0.00
2:56 pm 14:56 Cloudy 40 4.4 34 1.1 79 79 NNE 9 15 30.16 1021 10 16 0.00 0.00
3:21 pm 15:21 Cloudy 39 4 34 1 81 81 N 7 11 30.12 1020 10 16 0.00 0.00
3:56 pm 15:56 Cloudy 42 5.6 35 1.7 76 76 NNE 12 19 30.13 1020 10 16 0.00 0.00
4:56 pm 16:56 Cloudy 43 6.1 35 1.7 74 74 NNE 10 17 30.13 1020 10 16 0.00 0.00
5:56 pm 17:56 Cloudy 42 5.6 35 1.7 76 76 N 14 22 30.12 1020 10 16 0.00 0.00
6:56 pm 18:56 Cloudy 41 5 35 1.7 79 79 NNE 10 17 30.13 1020 10 16 0.00 0.00
7:44 pm 19:44 Cloudy 39 4 34 1 81 81 NNE 9 15 30.10 1019 10 16 0.00 0.00
7:56 pm 19:56 Cloudy 39 3.9 34 1.1 82 82 NNE 10 17 30.12 1020 10 16 0.00 0.00
8:56 pm 20:56 Cloudy 38 3.3 33 0.6 83 83 NE 9 15 30.13 1020 10 16 0.00 0.00
9:56 pm 21:56 Cloudy 37 2.8 33 0.6 86 86 NE 12 19 30.15 1021 10 16 0.00 0.00
10:44 pm 22:44 Cloudy 37 3 34 1 87 87 N 9 15 30.13 1020 10 16 0.00 0.00
10:56 pm 22:56 Cloudy 37 2.8 33 0.6 86 86 N 7 11 30.15 1021 10 16 0.00 0.00
11:56 pm 23:56 Cloudy 37 2.8 34 1.1 89 89 N 6 9 30.14 1021 10 16 0.00 0.00

Powered by AerisWeather